Date String (YYYY-MM-DD hh:mm:ss) UTC,Instrument flags,Ambient pressure (hPa),Sample flow (lpm),Bypass flow (lpm),Sample temperature (°C),Ambient temperature (°C),ASC tube jacket temperature (°C),LED temperature (°C),Box temperature (°C),Sample RH (%),Span deviation,Mass concentration (μg/m³),Mass concentration (μg/m³),Mass concentration (μg/m³)
DateTimeUTC,F1_M11,P_M11,Q1_M11,Q2_M11,T1_M11,T2_M11,T3_M11,T4_M11,T5_M11,U1_M11,ZSPAN_M11,X2_M11,X0_M11,X1_M11
2022-04-18 11:00:00,,0833.6,5.00,0.00,24.2,23.1,00.0,33.1,26.0,09.2,0000.0,0002.28,0008.49,0001.11
2022-04-18 11:01:00,,0833.6,5.00,0.00,24.2,23.1,00.0,33.1,26.0,09.2,0000.0,0002.29,0008.43,0001.11
2022-04-18 11:02:00,,0833.6,5.00,0.00,24.2,23.1,00.0,33.1,26.0,09.2,0000.0,0002.25,0008.20,0001.11
2022-04-18 11:03:00,,0833.6,5.01,0.00,24.2,23.1,00.0,33.1,25.9,09.2,0000.0,0002.27,0008.44,0001.12
2022-04-18 11:04:00,,0833.6,5.01,0.00,24.1,23.1,00.0,33.1,25.9,09.3,0000.0,0002.25,0008.79,0001.13
2022-04-18 11:05:00,,0833.6,5.00,0.00,24.1,23.1,00.0,33.1,25.9,09.3,0000.0,0002.20,0008.62,0001.12
2022-04-18 11:06:00,,0833.6,4.99,0.00,24.1,23.1,00.0,33.1,25.9,09.3,0000.0,0002.24,0008.53,0001.14
2022-04-18 11:07:00,,0833.6,5.00,0.00,24.1,23.1,00.0,33.1,25.9,09.3,0000.0,0002.22,0008.06,0001.15
2022-04-18 11:08:00,,0833.6,4.99,0.00,24.1,23.1,00.0,33.1,25.9,09.3,0000.0,0002.20,0008.43,0001.16
2022-04-18 11:09:00,,0833.6,5.00,0.00,24.1,23.1,00.0,33.1,25.9,09.3,0000.0,0002.19,0008.65,0001.17
2022-04-18 11:10:00,,0833.6,5.00,0.00,24.1,23.1,00.0,33.1,25.9,09.3,0000.0,0002.23,0008.80,0001.19
2022-04-18 11:11:00,,0833.6,4.99,0.00,24.1,23.1,00.0,33.1,25.9,09.3,0000.0,0002.27,0008.82,0001.21
2022-04-18 11:12:00,,0833.6,5.00,0.00,24.1,23.0,00.0,33.1,25.9,09.3,0000.0,0002.32,0008.85,0001.24
2022-04-18 11:13:00,,0833.6,5.01,0.00,24.1,23.0,00.0,33.1,25.9,09.3,0000.0,0002.34,0008.68,0001.26
2022-04-18 11:14:00,,0833.6,5.00,0.00,24.1,23.0,00.0,33.0,25.8,09.3,0000.0,0002.31,0008.23,0001.26
2022-04-18 11:15:00,,0833.6,5.00,0.00,24.1,23.0,00.0,33.0,25.8,09.3,0000.0,0002.31,0007.98,0001.27
2022-04-18 11:16:00,,0833.6,5.00,0.00,24.1,23.0,00.0,33.0,25.8,09.3,0000.0,0002.37,0008.42,0001.28
2022-04-18 11:17:00,,0833.6,5.00,0.00,24.1,23.0,00.0,33.0,25.8,09.3,0000.0,0002.40,0009.09,0001.29
2022-04-18 11:18:00,,0833.6,5.00,0.00,24.0,23.0,00.0,33.0,25.8,09.3,0000.0,0002.42,0009.27,0001.29
2022-04-18 11:19:00,,0833.6,5.00,0.00,24.1,23.0,00.0,33.0,25.8,09.3,0000.0,0002.40,0008.79,0001.29
2022-04-18 11:20:00,,0833.6,4.98,0.00,24.0,23.0,00.0,33.0,25.8,09.3,0000.0,0002.37,0007.95,0001.29
2022-04-18 11:21:00,,0833.6,5.00,0.00,24.0,23.0,00.0,33.0,25.8,09.3,0000.0,0002.39,0007.72,0001.29
2022-04-18 11:22:00,,0833.6,5.00,0.00,24.0,23.0,00.0,33.0,25.8,09.3,0000.0,0002.40,0007.86,0001.29
2022-04-18 11:23:00,,0833.6,5.00,0.00,24.0,23.0,00.0,33.0,25.7,09.3,0000.0,0002.32,0008.19,0001.28
2022-04-18 11:24:00,,0833.6,5.00,0.00,24.0,23.0,00.0,33.0,25.7,09.3,0000.0,0002.32,0008.00,0001.28
2022-04-18 11:25:00,,0833.6,5.00,0.00,24.0,23.0,00.0,33.0,25.7,09.3,0000.0,0002.38,0008.10,0001.27
2022-04-18 11:26:00,,0833.6,5.00,0.00,24.0,23.0,00.0,33.0,25.7,09.3,0000.0,0002.43,0008.20,0001.28
2022-04-18 11:27:00,,0833.6,5.01,0.00,24.0,22.9,00.0,33.0,25.7,09.3,0000.0,0002.39,0008.18,0001.30
2022-04-18 11:28:00,,0833.6,5.00,0.00,24.0,22.9,00.0,33.0,25.7,09.3,0000.0,0002.35,0007.89,0001.30
2022-04-18 11:29:00,,0833.6,5.00,0.00,24.0,22.9,00.0,33.0,25.7,09.3,0000.0,0002.33,0008.29,0001.31
2022-04-18 11:30:00,,0833.6,5.00,0.00,24.0,22.9,00.0,33.0,25.7,09.3,0000.0,0002.33,0008.85,0001.31
2022-04-18 11:31:00,,0833.6,5.00,0.00,24.0,22.9,00.0,33.0,25.7,09.3,0000.0,0002.36,0009.04,0001.31
2022-04-18 11:32:00,,0833.6,4.99,0.00,24.0,22.9,00.0,32.9,25.7,09.3,0000.0,0002.31,0009.00,0001.30
2022-04-18 11:33:00,,0833.6,5.00,0.00,24.0,22.9,00.0,32.9,25.7,09.4,0000.0,0002.29,0008.95,0001.29
2022-04-18 11:34:00,,0833.6,5.01,0.00,24.0,22.9,00.0,32.9,25.6,09.3,0000.0,0002.32,0008.83,0001.28
2022-04-18 11:35:00,,0833.6,5.00,0.00,23.9,22.9,00.0,32.9,25.7,09.3,0000.0,0002.34,0009.77,0001.28
2022-04-18 11:36:00,,0833.6,5.00,0.00,23.9,22.8,00.0,32.9,25.7,09.4,0000.0,0002.29,0010.07,0001.29
2022-04-18 11:37:00,,0833.6,5.00,0.00,23.9,22.8,00.0,32.9,25.6,09.4,0000.0,0002.26,0009.99,0001.30
2022-04-18 11:38:00,,0833.6,4.99,0.00,23.9,22.8,00.0,32.9,25.6,09.4,0000.0,0002.25,0009.76,0001.29
2022-04-18 11:39:00,,0833.6,5.00,0.00,23.9,22.8,00.0,32.9,25.6,09.4,0000.0,0002.24,0009.41,0001.28
2022-04-18 11:40:00,,0833.6,5.00,0.00,23.9,22.8,00.0,32.9,25.6,09.4,0000.0,0002.25,0008.95,0001.26
2022-04-18 11:41:00,,0833.6,5.00,0.00,23.9,22.8,00.0,32.9,25.6,09.4,0000.0,0002.27,0008.28,0001.25
2022-04-18 11:42:00,,0833.6,5.00,0.00,23.9,22.8,00.0,32.9,25.6,09.4,0000.0,0002.24,0008.01,0001.23
2022-04-18 11:43:00,,0833.6,5.01,0.00,23.9,22.8,00.0,32.9,25.6,09.4,0000.0,0002.22,0007.92,0001.23
2022-04-18 11:44:00,,0833.6,5.00,0.00,23.9,22.8,00.0,32.9,25.6,09.4,0000.0,0002.22,0007.89,0001.24
2022-04-18 11:45:00,,0833.6,5.00,0.00,23.9,22.8,00.0,32.8,25.6,09.4,0000.0,0002.20,0007.96,0001.24
2022-04-18 11:46:00,,0833.5,5.00,0.00,23.9,22.8,00.0,32.8,25.6,09.4,0000.0,0002.14,0007.00,0001.23
2022-04-18 11:47:00,,0833.6,5.00,0.00,23.8,22.8,00.0,32.8,25.6,09.4,0000.0,0002.11,0006.28,0001.22
2022-04-18 11:48:00,,0833.6,5.00,0.00,23.8,22.8,00.0,32.8,25.5,09.4,0000.0,0002.04,0006.01,0001.21
2022-04-18 11:49:00,,0833.6,5.00,0.00,23.8,22.8,00.0,32.8,25.5,09.4,0000.0,0002.02,0005.78,0001.20
2022-04-18 11:50:00,,0833.6,5.01,0.00,23.8,22.8,00.0,32.8,25.5,09.4,0000.0,0002.09,0005.47,0001.20
2022-04-18 11:51:00,,0833.6,5.00,0.00,23.8,22.7,00.0,32.8,25.5,09.4,0000.0,0002.09,0005.68,0001.20
2022-04-18 11:52:00,,0833.5,5.00,0.00,23.8,22.7,00.0,32.8,25.5,09.4,0000.0,0002.10,0005.81,0001.21
2022-04-18 11:53:00,,0833.5,5.00,0.00,23.8,22.7,00.0,32.8,25.5,09.4,0000.0,0002.15,0006.08,0001.23
2022-04-18 11:54:00,,0833.6,4.99,0.00,23.8,22.7,00.0,32.8,25.5,09.5,0000.0,0002.23,0006.79,0001.24
2022-04-18 11:55:00,,0833.6,4.99,0.00,23.8,22.7,00.0,32.8,25.5,09.5,0000.0,0002.28,0007.12,0001.24
2022-04-18 11:56:00,,0833.6,5.00,0.00,23.8,22.7,00.0,32.7,25.5,09.5,0000.0,0002.31,0007.07,0001.25
2022-04-18 11:57:00,,0833.5,5.00,0.00,23.8,22.7,00.0,32.7,25.5,09.5,0000.0,0002.38,0006.43,0001.26
2022-04-18 11:58:00,,0833.5,5.00,0.00,23.8,22.7,00.0,32.7,25.5,09.5,0000.0,0002.43,0007.09,0001.26
2022-04-18 11:59:00,,0833.6,5.00,0.00,23.8,22.7,00.0,32.7,25.5,09.5,0000.0,0002.51,0007.63,0001.27
